Location: Creola (historical)
(38.1334°N, 100.5024°W)
Time: 07:49:44
(UTC+00:00)

GEOS 3 Rocket - Pass Details

Date: 18 October 2021
Orbit: 789 x 830 km, 115.0° (Epoch: 30 November)

Event Time Altitude Azimuth Distance (km) Brightness Sun altitude
Rises 12:03:12 0° 27° (NNE) 3,315 7.1 -10.7°
Reaches altitude 10° 12:05:37 10° 20° (NNE) 2,376 6.3 -10.2°
Maximum altitude 12:10:24 41° 312° (NW) 1,144 4.1 -9.3°
Drops below altitude 10° 12:15:08 10° 243° (WSW) 2,349 5.5 -8.4°
Enters shadow 12:16:57 - 238° (WSW) 3,055 6.1 -8.0°
